Time,TemperatureF,DewpointF,PressureIn,WindDirection,WindDirectionDegrees,WindSpeedMPH,WindSpeedGustMPH,Humidity,HourlyPrecipIn,Conditions,Clouds,dailyrainin,SoftwareType,DateUTC
2013-02-24 00:01:00,37.0,36.0,29.81,North,5,1.0,7.0,95,0.01,,,0.27,,2013-02-24 05:01:00,
2013-02-24 00:11:00,37.0,36.0,29.81,North,5,1.0,7.0,95,0.01,,,0.27,,2013-02-24 05:11:00,
2013-02-24 00:22:00,37.0,36.0,29.81,NE,45,1.0,7.0,95,0.01,,,0.27,,2013-02-24 05:22:00,
2013-02-24 00:32:00,37.0,36.0,29.81,NNE,14,1.0,3.0,95,0.00,,,0.27,,2013-02-24 05:32:00,
2013-02-24 00:42:00,37.0,36.0,29.81,NNE,14,1.0,3.0,95,0.00,,,0.27,,2013-02-24 05:42:00,
2013-02-24 00:52:00,38.0,37.0,29.80,NNE,31,1.0,6.0,95,0.00,,,0.27,,2013-02-24 05:52:00,
2013-02-24 01:02:00,38.0,37.0,29.80,NNW,338,0.0,3.0,95,0.00,,,0.27,,2013-02-24 06:02:00,
2013-02-24 01:11:00,38.0,37.0,29.80,NNW,338,0.0,3.0,95,0.00,,,0.27,,2013-02-24 06:11:00,
2013-02-24 01:21:00,38.0,37.0,29.80,North,1,0.0,5.0,95,0.00,,,0.27,,2013-02-24 06:21:00,
2013-02-24 01:32:00,38.0,37.0,29.80,North,6,1.0,3.0,95,0.00,,,0.27,,2013-02-24 06:32:00,
2013-02-24 01:42:00,38.0,37.0,29.80,North,6,1.0,3.0,95,0.00,,,0.27,,2013-02-24 06:42:00,
2013-02-24 01:52:00,38.0,37.0,29.80,West,276,1.0,7.0,95,0.00,,,0.27,,2013-02-24 06:52:00,
2013-02-24 02:01:00,38.0,37.0,29.80,NNE,16,0.0,1.0,95,0.00,,,0.27,,2013-02-24 07:01:00,
2013-02-24 02:12:00,38.0,37.0,29.80,NNE,16,0.0,1.0,95,0.00,,,0.27,,2013-02-24 07:12:00,
2013-02-24 02:22:00,37.0,36.0,29.80,North,349,0.0,3.0,95,0.00,,,0.27,,2013-02-24 07:22:00,
2013-02-24 02:32:00,37.0,36.0,29.79,NNW,330,0.0,2.0,95,0.01,,,0.28,,2013-02-24 07:32:00,
2013-02-24 02:42:00,37.0,36.0,29.79,NNW,330,0.0,2.0,95,0.01,,,0.28,,2013-02-24 07:42:00,
2013-02-24 02:51:00,37.0,36.0,29.79,NNW,347,0.0,2.0,95,0.01,,,0.28,,2013-02-24 07:51:00,
2013-02-24 03:01:00,37.0,36.0,29.79,NNW,342,0.0,2.0,95,0.01,,,0.28,,2013-02-24 08:01:00,
2013-02-24 03:11:00,37.0,36.0,29.79,NNW,342,0.0,2.0,95,0.01,,,0.28,,2013-02-24 08:11:00,
2013-02-24 03:22:00,37.0,36.0,29.79,NNW,342,0.0,1.0,95,0.01,,,0.28,,2013-02-24 08:22:00,
2013-02-24 03:32:00,37.0,36.0,29.79,North,7,1.0,5.0,95,0.01,,,0.29,,2013-02-24 08:32:00,
2013-02-24 03:42:00,37.0,36.0,29.79,North,7,1.0,5.0,95,0.01,,,0.29,,2013-02-24 08:42:00,
2013-02-24 03:53:00,37.0,36.0,29.78,North,8,0.0,2.0,95,0.01,,,0.29,,2013-02-24 08:53:00,
2013-02-24 04:01:00,37.0,36.0,29.79,WNW,294,0.0,3.0,95,0.01,,,0.29,,2013-02-24 09:01:00,
2013-02-24 04:11:00,37.0,36.0,29.79,WNW,294,0.0,3.0,95,0.01,,,0.29,,2013-02-24 09:11:00,
2013-02-24 04:21:00,37.0,36.0,29.79,NW,312,0.0,1.0,95,0.01,,,0.29,,2013-02-24 09:21:00,
2013-02-24 04:32:00,37.0,36.0,29.80,WNW,297,0.0,1.0,95,0.00,,,0.29,,2013-02-24 09:32:00,
2013-02-24 04:42:00,37.0,36.0,29.80,WNW,297,0.0,1.0,95,0.00,,,0.29,,2013-02-24 09:42:00,
2013-02-24 04:51:00,37.0,36.0,29.79,NNE,13,1.0,5.0,95,0.00,,,0.29,,2013-02-24 09:51:00,
2013-02-24 05:01:00,37.0,36.0,29.78,NNE,16,1.0,3.0,95,0.00,,,0.29,,2013-02-24 10:01:00,
2013-02-24 05:11:00,37.0,36.0,29.78,NNE,16,1.0,3.0,95,0.00,,,0.29,,2013-02-24 10:11:00,
2013-02-24 05:21:00,37.0,36.0,29.76,NNE,23,1.0,5.0,95,0.00,,,0.29,,2013-02-24 10:21:00,
2013-02-24 05:32:00,37.0,36.0,29.77,NW,321,0.0,3.0,95,0.00,,,0.29,,2013-02-24 10:32:00,
2013-02-24 05:42:00,37.0,36.0,29.77,NW,321,0.0,3.0,95,0.00,,,0.29,,2013-02-24 10:42:00,
2013-02-24 05:51:00,37.0,36.0,29.76,WNW,288,1.0,3.0,95,0.00,,,0.29,,2013-02-24 10:51:00,
2013-02-24 06:01:00,38.0,37.0,29.76,NNW,338,0.0,5.0,95,0.00,,,0.29,,2013-02-24 11:01:00,
2013-02-24 06:11:00,38.0,37.0,29.76,NNW,338,0.0,5.0,95,0.00,,,0.29,,2013-02-24 11:11:00,
2013-02-24 06:22:00,37.0,36.0,29.76,North,8,0.0,3.0,95,0.00,,,0.29,,2013-02-24 11:22:00,
2013-02-24 06:32:00,37.0,36.0,29.75,NNE,19,1.0,3.0,95,0.00,,,0.29,,2013-02-24 11:32:00,
2013-02-24 06:42:00,37.0,36.0,29.75,NNE,19,1.0,3.0,95,0.00,,,0.29,,2013-02-24 11:42:00,
2013-02-24 06:52:00,37.0,35.0,29.75,NNW,348,1.0,5.0,94,0.00,,,0.29,,2013-02-24 11:52:00,
2013-02-24 07:02:00,37.0,35.0,29.77,SW,216,0.0,3.0,94,0.00,,,0.29,,2013-02-24 12:02:00,
2013-02-24 07:11:00,37.0,35.0,29.77,SW,216,0.0,3.0,94,0.00,,,0.29,,2013-02-24 12:11:00,
2013-02-24 07:22:00,37.0,35.0,29.77,SW,228,0.0,3.0,94,0.00,,,0.29,,2013-02-24 12:22:00,
2013-02-24 07:32:00,37.0,35.0,29.77,NNW,337,0.0,3.0,94,0.00,,,0.29,,2013-02-24 12:32:00,
2013-02-24 07:46:00,37.0,35.0,29.77,NNW,337,0.0,3.0,94,0.00,,,0.29,,2013-02-24 12:46:00,
2013-02-24 07:55:00,37.0,35.0,29.77,NNE,25,0.0,5.0,94,0.00,,,0.29,,2013-02-24 12:55:00,
2013-02-24 08:17:00,37.0,35.0,29.77,NNW,343,0.0,3.0,94,0.00,,,0.29,,2013-02-24 13:17:00,
2013-02-24 08:27:00,37.0,35.0,29.77,North,0,1.0,3.0,93,0.00,,,0.29,,2013-02-24 13:27:00,
2013-02-24 08:34:00,38.0,36.0,29.77,North,356,0.0,3.0,94,0.00,,,0.29,,2013-02-24 13:34:00,
2013-02-24 08:45:00,38.0,36.0,29.77,North,356,0.0,3.0,94,0.00,,,0.29,,2013-02-24 13:45:00,
2013-02-24 08:53:00,39.0,37.0,29.76,WSW,258,0.0,5.0,93,0.00,,,0.28,,2013-02-24 13:53:00,
2013-02-24 09:05:00,40.0,38.0,29.77,NNE,16,1.0,5.0,92,0.00,,,0.28,,2013-02-24 14:05:00,
2013-02-24 09:14:00,40.0,38.0,29.77,NNE,16,1.0,5.0,92,0.00,,,0.28,,2013-02-24 14:14:00,
2013-02-24 09:25:00,40.0,38.0,29.77,West,264,0.0,3.0,91,0.00,,,0.28,,2013-02-24 14:25:00,
2013-02-24 09:34:00,41.0,38.0,29.78,NE,39,1.0,7.0,89,0.00,,,0.28,,2013-02-24 14:34:00,
2013-02-24 09:44:00,41.0,38.0,29.78,NE,39,1.0,7.0,89,0.00,,,0.28,,2013-02-24 14:44:00,
2013-02-24 09:53:00,41.0,38.0,29.78,North,2,0.0,2.0,89,0.00,,,0.28,,2013-02-24 14:53:00,
2013-02-24 10:04:00,42.0,39.0,29.77,ESE,105,1.0,3.0,88,0.00,,,0.27,,2013-02-24 15:04:00,
2013-02-24 10:13:00,42.0,39.0,29.77,ESE,105,1.0,3.0,88,0.00,,,0.27,,2013-02-24 15:13:00,
2013-02-24 10:24:00,42.0,39.0,29.76,North,1,1.0,6.0,90,0.00,,,0.27,,2013-02-24 15:24:00,
2013-02-24 10:32:00,44.0,39.0,29.77,NE,47,1.0,5.0,84,0.00,,,0.27,,2013-02-24 15:32:00,
2013-02-24 10:42:00,44.0,39.0,29.77,NE,47,1.0,5.0,84,0.00,,,0.27,,2013-02-24 15:42:00,
2013-02-24 10:52:00,44.0,39.0,29.76,SSE,168,3.0,6.0,82,0.00,,,0.27,,2013-02-24 15:52:00,
2013-02-24 11:02:00,44.0,38.0,29.76,NNE,16,1.0,5.0,80,0.00,,,0.26,,2013-02-24 16:02:00,
2013-02-24 11:12:00,44.0,38.0,29.76,NNE,16,1.0,5.0,80,0.00,,,0.26,,2013-02-24 16:12:00,
2013-02-24 11:21:00,44.0,38.0,29.76,ENE,73,0.0,5.0,80,0.00,,,0.26,,2013-02-24 16:21:00,
2013-02-24 11:32:00,45.0,39.0,29.77,North,5,1.0,5.0,80,0.00,,,0.25,,2013-02-24 16:32:00,
2013-02-24 11:42:00,45.0,39.0,29.77,North,5,1.0,5.0,80,0.00,,,0.25,,2013-02-24 16:42:00,
2013-02-24 11:52:00,45.0,39.0,29.77,SE,126,1.0,5.0,78,0.00,,,0.25,,2013-02-24 16:52:00,
2013-02-24 12:01:00,44.0,37.0,29.78,NNW,344,2.0,12.0,77,0.00,,,0.24,,2013-02-24 17:01:00,
2013-02-24 12:11:00,44.0,37.0,29.78,NNW,344,2.0,12.0,77,0.00,,,0.24,,2013-02-24 17:11:00,
2013-02-24 12:22:00,44.0,37.0,29.77,NNE,19,2.0,6.0,77,0.00,,,0.23,,2013-02-24 17:22:00,
2013-02-24 12:32:00,46.0,37.0,29.76,NW,318,1.0,8.0,72,0.00,,,0.23,,2013-02-24 17:32:00,
2013-02-24 12:42:00,46.0,37.0,29.76,NW,318,1.0,8.0,72,0.00,,,0.23,,2013-02-24 17:42:00,
2013-02-24 12:52:00,46.0,37.0,29.75,NW,306,2.0,7.0,72,0.00,,,0.22,,2013-02-24 17:52:00,
2013-02-24 13:02:00,46.0,37.0,29.75,NW,312,2.0,6.0,71,0.00,,,0.22,,2013-02-24 18:02:00,
2013-02-24 13:11:00,46.0,37.0,29.75,NW,312,2.0,6.0,71,0.00,,,0.22,,2013-02-24 18:11:00,
2013-02-24 13:22:00,46.0,37.0,29.75,North,350,0.0,5.0,71,0.00,,,0.21,,2013-02-24 18:22:00,
2013-02-24 13:32:00,46.0,36.0,29.75,NNE,22,1.0,5.0,69,0.00,,,0.20,,2013-02-24 18:32:00,
2013-02-24 13:42:00,46.0,36.0,29.75,NNE,22,1.0,5.0,69,0.00,,,0.20,,2013-02-24 18:42:00,
2013-02-24 13:52:00,47.0,36.0,29.74,East,91,1.0,5.0,66,0.00,,,0.20,,2013-02-24 18:52:00,
2013-02-24 14:01:00,47.0,35.0,29.74,SSW,207,0.0,3.0,64,0.00,,,0.20,,2013-02-24 19:01:00,
2013-02-24 14:12:00,47.0,35.0,29.74,SSW,207,0.0,3.0,64,0.00,,,0.20,,2013-02-24 19:12:00,
2013-02-24 14:22:00,47.0,35.0,29.74,NNE,19,1.0,6.0,62,0.00,,,0.19,,2013-02-24 19:22:00,
2013-02-24 14:32:00,47.0,37.0,29.74,North,355,1.0,8.0,67,0.00,,,0.18,,2013-02-24 19:32:00,
2013-02-24 14:42:00,47.0,37.0,29.74,North,355,1.0,8.0,67,0.00,,,0.18,,2013-02-24 19:42:00,
2013-02-24 14:52:00,46.0,36.0,29.74,WNW,295,1.0,5.0,69,0.00,,,0.16,,2013-02-24 19:52:00,
2013-02-24 15:02:00,46.0,35.0,29.75,ENE,62,2.0,8.0,64,0.00,,,0.13,,2013-02-24 20:02:00,
2013-02-24 15:11:00,46.0,35.0,29.75,ENE,62,2.0,8.0,64,0.00,,,0.13,,2013-02-24 20:11:00,
2013-02-24 15:21:00,46.0,33.0,29.75,South,179,1.0,5.0,60,0.00,,,0.12,,2013-02-24 20:21:00,
2013-02-24 15:32:00,46.0,32.0,29.75,NE,52,2.0,9.0,58,0.00,,,0.10,,2013-02-24 20:32:00,
2013-02-24 15:42:00,46.0,32.0,29.75,NE,52,2.0,9.0,58,0.00,,,0.10,,2013-02-24 20:42:00,
2013-02-24 15:52:00,45.0,31.0,29.76,NNE,14,0.0,7.0,58,0.00,,,0.10,,2013-02-24 20:52:00,
2013-02-24 16:02:00,44.0,30.0,29.77,South,179,1.0,8.0,58,0.00,,,0.09,,2013-02-24 21:02:00,
2013-02-24 16:11:00,44.0,30.0,29.77,South,179,1.0,8.0,58,0.00,,,0.09,,2013-02-24 21:11:00,
2013-02-24 16:21:00,44.0,30.0,29.78,SW,219,2.0,9.0,58,0.00,,,0.09,,2013-02-24 21:21:00,
2013-02-24 16:32:00,43.0,30.0,29.79,West,274,2.0,8.0,59,0.00,,,0.07,,2013-02-24 21:32:00,
2013-02-24 16:42:00,43.0,30.0,29.79,West,274,2.0,8.0,59,0.00,,,0.07,,2013-02-24 21:42:00,
2013-02-24 16:52:00,43.0,30.0,29.79,NE,48,3.0,7.0,60,0.00,,,0.07,,2013-02-24 21:52:00,
2013-02-24 17:01:00,42.0,30.0,29.81,East,101,2.0,5.0,61,0.00,,,0.06,,2013-02-24 22:01:00,
2013-02-24 17:11:00,42.0,30.0,29.81,East,101,2.0,5.0,61,0.00,,,0.06,,2013-02-24 22:11:00,
2013-02-24 17:22:00,42.0,30.0,29.81,ENE,68,2.0,8.0,62,0.00,,,0.06,,2013-02-24 22:22:00,
2013-02-24 17:32:00,41.0,29.0,29.83,WNW,302,2.0,9.0,63,0.00,,,0.05,,2013-02-24 22:32:00,
2013-02-24 17:42:00,41.0,29.0,29.83,WNW,302,2.0,9.0,63,0.00,,,0.05,,2013-02-24 22:42:00,
2013-02-24 17:52:00,40.0,29.0,29.84,NNW,334,1.0,9.0,64,0.00,,,0.04,,2013-02-24 22:52:00,
2013-02-24 18:02:00,39.0,28.0,29.84,East,94,2.0,9.0,64,0.00,,,0.04,,2013-02-24 23:02:00,
2013-02-24 18:11:00,39.0,28.0,29.84,East,94,2.0,9.0,64,0.00,,,0.04,,2013-02-24 23:11:00,
2013-02-24 18:21:00,39.0,27.0,29.85,SSW,198,1.0,5.0,62,0.00,,,0.04,,2013-02-24 23:21:00,
2013-02-24 18:32:00,38.0,25.0,29.86,SSW,207,3.0,10.0,60,0.00,,,0.03,,2013-02-24 23:32:00,
2013-02-24 18:42:00,38.0,25.0,29.86,SSW,207,3.0,10.0,60,0.00,,,0.03,,2013-02-24 23:42:00,
2013-02-24 18:52:00,38.0,25.0,29.87,WNW,283,2.0,12.0,60,0.00,,,0.03,,2013-02-24 23:52:00,
2013-02-24 19:02:00,38.0,25.0,29.87,West,261,2.0,6.0,60,0.00,,,0.03,,2013-02-25 00:02:00,
2013-02-24 19:11:00,38.0,25.0,29.87,West,261,2.0,6.0,60,0.00,,,0.03,,2013-02-25 00:11:00,
2013-02-24 19:21:00,38.0,25.0,29.88,WSW,258,2.0,12.0,59,0.00,,,0.03,,2013-02-25 00:21:00,
2013-02-24 19:32:00,38.0,25.0,29.89,NNE,12,2.0,9.0,60,0.00,,,0.03,,2013-02-25 00:32:00,
2013-02-24 19:42:00,38.0,25.0,29.89,NNE,12,2.0,9.0,60,0.00,,,0.03,,2013-02-25 00:42:00,
2013-02-24 19:52:00,38.0,26.0,29.90,SW,215,2.0,8.0,61,0.00,,,0.03,,2013-02-25 00:52:00,
2013-02-24 20:01:00,37.0,25.0,29.91,SW,229,3.0,8.0,61,0.00,,,0.03,,2013-02-25 01:01:00,
2013-02-24 20:11:00,37.0,25.0,29.91,SW,229,3.0,8.0,61,0.00,,,0.03,,2013-02-25 01:11:00,
2013-02-24 20:21:00,37.0,25.0,29.91,NW,325,3.0,14.0,61,0.00,,,0.03,,2013-02-25 01:21:00,
2013-02-24 20:32:00,37.0,25.0,29.93,ENE,63,4.0,13.0,61,0.00,,,0.03,,2013-02-25 01:32:00,
2013-02-24 20:42:00,37.0,25.0,29.93,ENE,63,4.0,13.0,61,0.00,,,0.03,,2013-02-25 01:42:00,
2013-02-24 20:52:00,37.0,25.0,29.93,North,354,2.0,12.0,62,0.00,,,0.03,,2013-02-25 01:52:00,
2013-02-24 21:01:00,36.0,25.0,29.93,NNW,330,1.0,6.0,64,0.00,,,0.03,,2013-02-25 02:01:00,
2013-02-24 21:11:00,36.0,25.0,29.93,NNW,330,1.0,6.0,64,0.00,,,0.03,,2013-02-25 02:11:00,
2013-02-24 21:21:00,36.0,25.0,29.94,SE,136,0.0,6.0,63,0.00,,,0.03,,2013-02-25 02:21:00,
2013-02-24 21:32:00,36.0,25.0,29.95,North,5,2.0,6.0,64,0.00,,,0.03,,2013-02-25 02:32:00,
2013-02-24 21:42:00,36.0,25.0,29.95,North,5,2.0,6.0,64,0.00,,,0.03,,2013-02-25 02:42:00,
2013-02-24 21:52:00,35.0,24.0,29.94,NNE,19,2.0,8.0,64,0.00,,,0.03,,2013-02-25 02:52:00,
2013-02-24 22:02:00,35.0,24.0,29.95,SSW,201,1.0,7.0,64,0.00,,,0.03,,2013-02-25 03:02:00,
2013-02-24 22:11:00,35.0,24.0,29.95,SSW,201,1.0,7.0,64,0.00,,,0.03,,2013-02-25 03:11:00,
2013-02-24 22:21:00,35.0,24.0,29.95,NNE,26,1.0,5.0,64,0.00,,,0.03,,2013-02-25 03:21:00,
2013-02-24 22:32:00,35.0,24.0,29.96,SW,236,1.0,7.0,64,0.00,,,0.03,,2013-02-25 03:32:00,
2013-02-24 22:42:00,35.0,24.0,29.96,SW,236,1.0,7.0,64,0.00,,,0.03,,2013-02-25 03:42:00,
2013-02-24 22:52:00,35.0,24.0,29.96,WNW,286,1.0,5.0,64,0.00,,,0.03,,2013-02-25 03:52:00,
2013-02-24 23:02:00,34.0,23.0,29.96,West,273,0.0,5.0,64,0.00,,,0.03,,2013-02-25 04:02:00,
2013-02-24 23:11:00,34.0,23.0,29.96,West,273,0.0,5.0,64,0.00,,,0.03,,2013-02-25 04:11:00,
2013-02-24 23:21:00,34.0,23.0,29.96,East,98,1.0,6.0,65,0.00,,,0.03,,2013-02-25 04:21:00,
2013-02-24 23:32:00,34.0,23.0,29.96,North,0,1.0,8.0,65,0.00,,,0.02,,2013-02-25 04:32:00,
2013-02-24 23:42:00,34.0,23.0,29.96,North,0,1.0,8.0,65,0.00,,,0.02,,2013-02-25 04:42:00,
2013-02-24 23:52:00,34.0,24.0,29.96,NNE,25,2.0,6.0,66,0.00,,,0.02,,2013-02-25 04:52:00,